When you browse on this site, cookies collect data to enhance your experience and personalize the content and advertising you see.
Visit our Privacy Policy to learn more. By continuing to use the site, you agree to this use of cookies and data.
  • In Deutschland
  • Länderverzeichnis
  • Für 7 Tage
  • Wassertemperatur
  • Wetterkarte
  • Widgets
  • user-avatar
    Anmelden

    Stündliche Wetter Scharan

    Heute, 19 September, Donnerstag

    Zeit Temperatur Niederschläge Wind Luftdruck Luftfeuchtigkeit
    00:00 +19°C° 0 mm 1 m/S 589 mmHg 18%
    01:00 +18°C° 0 mm 1 m/S 589 mmHg 21%
    02:00 +16°C° 0 mm 1 m/S 588 mmHg 25%
    03:00 +15°C° 0 mm 0 m/S 588 mmHg 26%
    04:00 +14°C° 0 mm 0 m/S 588 mmHg 28%
    05:00 +13°C° 0 mm 0 m/S 587 mmHg 32%
    06:00 +15°C° 0 mm 0 m/S 589 mmHg 29%
    07:00 +17°C° 0 mm 0 m/S 590 mmHg 26%
    08:00 +19°C° 0 mm 0 m/S 592 mmHg 24%
    09:00 +22°C° 0 mm 1 m/S 592 mmHg 20%
    10:00 +24°C° 0 mm 1 m/S 592 mmHg 17%
    11:00 +26°C° 0 mm 2 m/S 593 mmHg 14%
    12:00 +27°C° 0 mm 1 m/S 593 mmHg 12%
    13:00 +28°C° 0 mm 1 m/S 593 mmHg 11%
    14:00 +29°C° 0 mm 1 m/S 592 mmHg 9%
    15:00 +29°C° 0 mm 1 m/S 592 mmHg 8%
    16:00 +29°C° 0 mm 2 m/S 592 mmHg 8%
    17:00 +29°C° 0 mm 2 m/S 592 mmHg 7%
    18:00 +27°C° 0 mm 2 m/S 592 mmHg 12%
    19:00 +25°C° 0 mm 2 m/S 591 mmHg 16%
    20:00 +23°C° 0 mm 2 m/S 591 mmHg 21%
    21:00 +21°C° 0 mm 2 m/S 590 mmHg 26%
    22:00 +20°C° 0 mm 2 m/S 590 mmHg 32%
    23:00 +21°C° 0 mm 1 m/S 590 mmHg 37%

    Morgen, 20 September, Freitag

    Zeit Temperatur Niederschläge Wind Luftdruck Luftfeuchtigkeit
    00:00 +20°C° 0 mm 1 m/S 589 mmHg 40%
    01:00 +19°C° 0 mm 1 m/S 589 mmHg 42%
    02:00 +16°C° 0 mm 0 m/S 588 mmHg 44%
    03:00 +16°C° 0 mm 0 m/S 588 mmHg 44%
    04:00 +15°C° 0 mm 0 m/S 588 mmHg 44%
    05:00 +15°C° 0 mm 0 m/S 588 mmHg 44%
    06:00 +18°C° 0 mm 1 m/S 589 mmHg 39%
    07:00 +19°C° 0 mm 1 m/S 590 mmHg 34%
    08:00 +21°C° 0 mm 1 m/S 590 mmHg 30%
    09:00 +22°C° 0 mm 1 m/S 591 mmHg 26%
    10:00 +23°C° 0 mm 1 m/S 591 mmHg 22%
    11:00 +25°C° 0 mm 1 m/S 592 mmHg 18%
    12:00 +26°C° 0 mm 1 m/S 592 mmHg 16%
    13:00 +27°C° 0 mm 1 m/S 591 mmHg 14%
    14:00 +28°C° 0 mm 2 m/S 591 mmHg 12%
    15:00 +28°C° 0 mm 2 m/S 591 mmHg 11%
    16:00 +28°C° 0 mm 2 m/S 591 mmHg 11%
    17:00 +28°C° 0 mm 2 m/S 590 mmHg 10%
    18:00 +26°C° 0 mm 2 m/S 590 mmHg 13%
    19:00 +25°C° 0 mm 1 m/S 590 mmHg 17%
    20:00 +23°C° 0 mm 1 m/S 589 mmHg 20%
    21:00 +22°C° 0 mm 1 m/S 589 mmHg 28%
    22:00 +21°C° 0 mm 1 m/S 589 mmHg 36%
    23:00 +21°C° 0 mm 1 m/S 589 mmHg 44%

    übermorgen, 21 September, Samstag

    Zeit Temperatur Niederschläge Wind Luftdruck Luftfeuchtigkeit
    00:00 +20°C° 0 mm 1 m/S 588 mmHg 46%
    01:00 +19°C° 0 mm 1 m/S 588 mmHg 49%
    02:00 +18°C° 0 mm 1 m/S 588 mmHg 52%
    03:00 +16°C° 0 mm 0 m/S 587 mmHg 53%
    04:00 +15°C° 0 mm 0 m/S 587 mmHg 53%
    05:00 +15°C° 0 mm 0 m/S 587 mmHg 53%
    06:00 +16°C° 0 mm 0 m/S 588 mmHg 47%
    07:00 +17°C° 0 mm 0 m/S 589 mmHg 42%
    08:00 +19°C° 0 mm 0 m/S 590 mmHg 36%
    09:00 +20°C° 0 mm 0 m/S 590 mmHg 32%
    10:00 +22°C° 0 mm 0 m/S 591 mmHg 27%
    11:00 +23°C° 0 mm 0 m/S 591 mmHg 23%
    12:00 +26°C° 0 mm 1 m/S 591 mmHg 19%
    13:00 +27°C° 0 mm 1 m/S 591 mmHg 16%
    14:00 +28°C° 0 mm 2 m/S 591 mmHg 12%
    15:00 +29°C° 0 mm 2 m/S 591 mmHg 11%
    16:00 +29°C° 0 mm 2 m/S 590 mmHg 10%
    17:00 +29°C° 0 mm 2 m/S 590 mmHg 9%
    18:00 +27°C° 0 mm 2 m/S 590 mmHg 11%
    19:00 +26°C° 0 mm 2 m/S 590 mmHg 13%
    20:00 +24°C° 0 mm 2 m/S 589 mmHg 14%
    21:00 +23°C° 0 mm 2 m/S 589 mmHg 19%
    22:00 +21°C° 0 mm 2 m/S 589 mmHg 24%
    23:00 +21°C° 0 mm 2 m/S 589 mmHg 29%

    22 September, Sonntag

    Zeit Temperatur Niederschläge Wind Luftdruck Luftfeuchtigkeit
    00:00 +20°C° 0 mm 2 m/S 588 mmHg 34%
    01:00 +19°C° 0 mm 2 m/S 588 mmHg 38%
    02:00 +19°C° 0 mm 1 m/S 588 mmHg 43%
    03:00 +18°C° 0 mm 1 m/S 587 mmHg 46%
    04:00 +18°C° 0 mm 1 m/S 587 mmHg 50%
    05:00 +15°C° 0 mm 0 m/S 587 mmHg 53%
    06:00 +18°C° 0 mm 1 m/S 588 mmHg 49%
    07:00 +20°C° 0 mm 1 m/S 589 mmHg 45%
    08:00 +21°C° 0 mm 1 m/S 590 mmHg 41%
    09:00 +23°C° 0 mm 1 m/S 591 mmHg 35%
    10:00 +24°C° 0 mm 1 m/S 591 mmHg 28%
    11:00 +24°C° 0 mm 0 m/S 592 mmHg 22%
    12:00 +27°C° 0 mm 1 m/S 592 mmHg 18%
    13:00 +28°C° 0 mm 1 m/S 592 mmHg 15%
    14:00 +29°C° 0 mm 1 m/S 592 mmHg 12%
    15:00 +30°C° 0 mm 1 m/S 592 mmHg 11%
    16:00 +30°C° 0 mm 1 m/S 591 mmHg 10%
    17:00 +30°C° 0 mm 1 m/S 591 mmHg 9%
    18:00 +28°C° 0 mm 1 m/S 591 mmHg 11%
    19:00 +26°C° 0 mm 1 m/S 591 mmHg 13%
    20:00 +24°C° 0 mm 1 m/S 590 mmHg 15%
    21:00 +24°C° 0 mm 1 m/S 590 mmHg 21%
    22:00 +23°C° 0 mm 1 m/S 590 mmHg 27%
    23:00 +21°C° 0 mm 2 m/S 590 mmHg 33%

    23 September, Montag

    Zeit Temperatur Niederschläge Wind Luftdruck Luftfeuchtigkeit
    00:00 +21°C° 0 mm 1 m/S 590 mmHg 36%
    01:00 +20°C° 0 mm 1 m/S 589 mmHg 40%
    02:00 +17°C° 0 mm 0 m/S 589 mmHg 43%
    03:00 +17°C° 0 mm 0 m/S 589 mmHg 43%
    04:00 +16°C° 0 mm 0 m/S 588 mmHg 43%
    05:00 +15°C° 0 mm 0 m/S 588 mmHg 43%
    06:00 +17°C° 0 mm 0 m/S 589 mmHg 38%
    07:00 +18°C° 0 mm 0 m/S 590 mmHg 34%
    08:00 +22°C° 0 mm 1 m/S 591 mmHg 29%
    09:00 +24°C° 0 mm 1 m/S 592 mmHg 25%
    10:00 +23°C° 0 mm 0 m/S 592 mmHg 21%
    11:00 +25°C° 0 mm 0 m/S 593 mmHg 18%
    12:00 +28°C° 0 mm 1 m/S 592 mmHg 15%
    13:00 +29°C° 0 mm 1 m/S 592 mmHg 13%
    14:00 +30°C° 0 mm 1 m/S 592 mmHg 11%
    15:00 +30°C° 0 mm 1 m/S 592 mmHg 10%
    16:00 +31°C° 0 mm 2 m/S 592 mmHg 10%
    17:00 +31°C° 0 mm 2 m/S 591 mmHg 9%
    18:00 +29°C° 0 mm 2 m/S 591 mmHg 13%
    19:00 +27°C° 0 mm 2 m/S 591 mmHg 17%
    20:00 +25°C° 0 mm 3 m/S 590 mmHg 21%
    21:00 +24°C° 0 mm 2 m/S 590 mmHg 28%
    22:00 +23°C° 0 mm 2 m/S 590 mmHg 34%
    23:00 +21°C° 0 mm 2 m/S 590 mmHg 41%

    24 September, Dienstag

    Zeit Temperatur Niederschläge Wind Luftdruck Luftfeuchtigkeit
    00:00 +21°C° 0 mm 1 m/S 590 mmHg 44%
    01:00 +20°C° 0 mm 1 m/S 589 mmHg 47%
    02:00 +17°C° 0 mm 0 m/S 589 mmHg 50%
    03:00 +17°C° 0 mm 0 m/S 588 mmHg 52%
    04:00 +16°C° 0 mm 0 m/S 588 mmHg 53%
    05:00 +16°C° 0 mm 0 m/S 588 mmHg 54%
    06:00 +17°C° 0 mm 0 m/S 589 mmHg 49%
    07:00 +19°C° 0 mm 0 m/S 590 mmHg 45%
    08:00 +20°C° 0 mm 0 m/S 591 mmHg 40%
    09:00 +22°C° 0 mm 0 m/S 592 mmHg 34%
    10:00 +23°C° 0 mm 0 m/S 592 mmHg 28%
    11:00 +25°C° 0 mm 0 m/S 593 mmHg 23%
    12:00 +28°C° 0 mm 1 m/S 593 mmHg 19%
    13:00 +29°C° 0 mm 1 m/S 592 mmHg 16%
    14:00 +30°C° 0 mm 1 m/S 592 mmHg 13%
    15:00 +31°C° 0 mm 2 m/S 592 mmHg 12%
    16:00 +31°C° 0 mm 2 m/S 592 mmHg 11%
    17:00 +31°C° 0 mm 3 m/S 592 mmHg 10%
    18:00 +29°C° 0 mm 3 m/S 591 mmHg 16%
    19:00 +27°C° 0 mm 3 m/S 591 mmHg 21%
    20:00 +25°C° 0 mm 3 m/S 591 mmHg 27%
    21:00 +24°C° 0 mm 3 m/S 591 mmHg 33%
    22:00 +23°C° 0 mm 2 m/S 591 mmHg 39%
    23:00 +21°C° 0 mm 2 m/S 590 mmHg 46%
    Mehr zeigen